Location: ??????
(38.3184°N, 23.6932°E)
Time: 01:53:22
(UTC+00:00)

Cosmos 1470 - Pass Details

Date: 16 October 2021
Orbit: 519 x 542 km, 82.5° (Epoch: 04 December)

Event Time Altitude Azimuth Distance (km) Brightness Sun altitude
Rises 16:16:20 0° 199° (SSW) 2,685 6.7 -6.7°
Reaches altitude 10° 16:18:32 10° 205° (SSW) 1,799 5.9 -7.2°
Maximum altitude 16:22:22 48° 280° (W) 718 4.0 -7.9°
Drops below altitude 10° 16:26:14 10° 355° (N) 1,813 5.5 -8.7°
Sets 16:28:28 0° 1° (N) 2,709 6.3 -9.1°
